Terminal Aerodrome Forecast
Issued by NWS Jackson, MS

Home | Current Version | Previous Version | Text Only | Print | Product List | Glossary On
Versions: 1 2 3 4 5 6 7 8 9 10 11 12 13 14 15 16 17 18 19
000
FTUS44 KJAN 240500
TAFHBG
TAF
KHBG 240520Z 2406/2506 00000KT P6SM SCT070
     FM241100 00000KT 1/2SM FG SKC
     FM241300 00000KT 4SM BR SCT250
     FM241500 20008KT P6SM SCT040 BKN250=

USA.gov is the U.S. government's official web portal to all federal, state and local government web resources and services.